owner,sensor,date,latitude,longitude,vertical_datum,sea_water_practical_salinity,qcFlag 
WAVCIS,ioos:station:WAVCIS:CSI16:1,2010-02-01T00:00:00Z,29.4012,-89.0355,1.0,28.833,11111222 
WAVCIS,ioos:station:WAVCIS:CSI16:1,2010-02-01T00:15:00Z,29.4012,-89.0355,1.0,28.838,11111222 
WAVCIS,ioos:station:WAVCIS:CSI16:1,2010-02-01T00:30:00Z,29.4012,-89.0355,1.0,28.826,11111222 
WAVCIS,ioos:station:WAVCIS:CSI16:1,2010-02-01T00:45:00Z,29.4012,-89.0355,1.0,28.831,11111222 
WAVCIS,ioos:station:WAVCIS:CSI16:1,2010-02-01T01:00:00Z,29.4012,-89.0355,1.0,28.824,11111222 
WAVCIS,ioos:station:WAVCIS:CSI16:1,2010-02-01T01:15:00Z,29.4012,-89.0355,1.0,28.828,11111222 
WAVCIS,ioos:station:WAVCIS:CSI16:1,2010-02-01T01:30:00Z,29.4012,-89.0355,1.0,28.846,11111222 
WAVCIS,ioos:station:WAVCIS:CSI16:1,2010-02-01T01:45:00Z,29.4012,-89.0355,1.0,28.872,11111222 
WAVCIS,ioos:station:WAVCIS:CSI16:1,2010-02-01T02:00:00Z,29.4012,-89.0355,1.0,28.866,11111222 
WAVCIS,ioos:station:WAVCIS:CSI16:1,2010-02-01T02:15:00Z,29.4012,-89.0355,1.0,28.869,11111222 
WAVCIS,ioos:station:WAVCIS:CSI16:1,2010-02-01T02:30:00Z,29.4012,-89.0355,1.0,28.885,11111222 
WAVCIS,ioos:station:WAVCIS:CSI16:1,2010-02-01T02:45:00Z,29.4012,-89.0355,1.0,28.916,11111222 
WAVCIS,ioos:station:WAVCIS:CSI16:1,2010-02-01T03:00:00Z,29.4012,-89.0355,1.0,28.963,11111222 
WAVCIS,ioos:station:WAVCIS:CSI16:1,2010-02-01T03:15:00Z,29.4012,-89.0355,1.0,29.01,11111222 
WAVCIS,ioos:station:WAVCIS:CSI16:1,2010-02-01T03:30:00Z,29.4012,-89.0355,1.0,29.012,11111222 
WAVCIS,ioos:station:WAVCIS:CSI16:1,2010-02-01T03:45:00Z,29.4012,-89.0355,1.0,29.033,11111222 
WAVCIS,ioos:station:WAVCIS:CSI16:1,2010-02-01T04:00:00Z,29.4012,-89.0355,1.0,29.068,11111222 
WAVCIS,ioos:station:WAVCIS:CSI16:1,2010-02-01T04:15:00Z,29.4012,-89.0355,1.0,29.087,11111222 
WAVCIS,ioos:station:WAVCIS:CSI16:1,2010-02-01T04:30:00Z,29.4012,-89.0355,1.0,29.113,11111222 
WAVCIS,ioos:station:WAVCIS:CSI16:1,2010-02-01T04:45:00Z,29.4012,-89.0355,1.0,29.13,11111222 
WAVCIS,ioos:station:WAVCIS:CSI16:1,2010-02-01T05:00:00Z,29.4012,-89.0355,1.0,29.147,11111222 
WAVCIS,ioos:station:WAVCIS:CSI16:1,2010-02-01T05:15:00Z,29.4012,-89.0355,1.0,29.179,11111222 
WAVCIS,ioos:station:WAVCIS:CSI16:1,2010-02-01T05:30:00Z,29.4012,-89.0355,1.0,29.189,11111222 
WAVCIS,ioos:station:WAVCIS:CSI16:1,2010-02-01T05:45:00Z,29.4012,-89.0355,1.0,29.201,11111222 
WAVCIS,ioos:station:WAVCIS:CSI16:1,2010-02-01T06:00:00Z,29.4012,-89.0355,1.0,29.215,11111222 
WAVCIS,ioos:station:WAVCIS:CSI16:1,2010-02-01T06:15:00Z,29.4012,-89.0355,1.0,29.243,11111222 
WAVCIS,ioos:station:WAVCIS:CSI16:1,2010-02-01T06:30:00Z,29.4012,-89.0355,1.0,29.261,11111222 
WAVCIS,ioos:station:WAVCIS:CSI16:1,2010-02-01T06:45:00Z,29.4012,-89.0355,1.0,29.265,11111222 
WAVCIS,ioos:station:WAVCIS:CSI16:1,2010-02-01T07:00:00Z,29.4012,-89.0355,1.0,29.272,11111222 
WAVCIS,ioos:station:WAVCIS:CSI16:1,2010-02-01T07:15:00Z,29.4012,-89.0355,1.0,29.263,11111222 
WAVCIS,ioos:station:WAVCIS:CSI16:1,2010-02-01T07:30:00Z,29.4012,-89.0355,1.0,29.254,11111222 
WAVCIS,ioos:station:WAVCIS:CSI16:1,2010-02-01T07:45:00Z,29.4012,-89.0355,1.0,29.24,11111222 
WAVCIS,ioos:station:WAVCIS:CSI16:1,2010-02-01T08:00:00Z,29.4012,-89.0355,1.0,29.225,11111222 
WAVCIS,ioos:station:WAVCIS:CSI16:1,2010-02-01T08:15:00Z,29.4012,-89.0355,1.0,29.242,11111222 
WAVCIS,ioos:station:WAVCIS:CSI16:1,2010-02-01T08:30:00Z,29.4012,-89.0355,1.0,29.171,11111222 
WAVCIS,ioos:station:WAVCIS:CSI16:1,2010-02-01T08:45:00Z,29.4012,-89.0355,1.0,29.144,11111222 
WAVCIS,ioos:station:WAVCIS:CSI16:1,2010-02-01T09:00:00Z,29.4012,-89.0355,1.0,29.181,11111222 
WAVCIS,ioos:station:WAVCIS:CSI16:1,2010-02-01T09:15:00Z,29.4012,-89.0355,1.0,29.135,11111222 
WAVCIS,ioos:station:WAVCIS:CSI16:1,2010-02-01T09:30:00Z,29.4012,-89.0355,1.0,29.075,11111222 
WAVCIS,ioos:station:WAVCIS:CSI16:1,2010-02-01T09:45:00Z,29.4012,-89.0355,1.0,29.063,11111222 
WAVCIS,ioos:station:WAVCIS:CSI16:1,2010-02-01T10:00:00Z,29.4012,-89.0355,1.0,29.048,11111222 
WAVCIS,ioos:station:WAVCIS:CSI16:1,2010-02-01T10:15:00Z,29.4012,-89.0355,1.0,28.965,11111222 
WAVCIS,ioos:station:WAVCIS:CSI16:1,2010-02-01T10:30:00Z,29.4012,-89.0355,1.0,28.968,11111222 
WAVCIS,ioos:station:WAVCIS:CSI16:1,2010-02-01T10:45:00Z,29.4012,-89.0355,1.0,28.887,11111222 
WAVCIS,ioos:station:WAVCIS:CSI16:1,2010-02-01T11:00:00Z,29.4012,-89.0355,1.0,28.772,11111222 
WAVCIS,ioos:station:WAVCIS:CSI16:1,2010-02-01T11:15:00Z,29.4012,-89.0355,1.0,28.706,11111222 
WAVCIS,ioos:station:WAVCIS:CSI16:1,2010-02-01T11:30:00Z,29.4012,-89.0355,1.0,28.707,11111222 
WAVCIS,ioos:station:WAVCIS:CSI16:1,2010-02-01T11:45:00Z,29.4012,-89.0355,1.0,28.683,11111222 
WAVCIS,ioos:station:WAVCIS:CSI16:1,2010-02-01T12:00:00Z,29.4012,-89.0355,1.0,25.518,11111222 
WAVCIS,ioos:station:WAVCIS:CSI16:1,2010-02-01T12:15:00Z,29.4012,-89.0355,1.0,25.863,11111222 
WAVCIS,ioos:station:WAVCIS:CSI16:1,2010-02-01T12:30:00Z,29.4012,-89.0355,1.0,26.037,11111222 
WAVCIS,ioos:station:WAVCIS:CSI16:1,2010-02-01T12:45:00Z,29.4012,-89.0355,1.0,26.16,11111222 
WAVCIS,ioos:station:WAVCIS:CSI16:1,2010-02-01T13:00:00Z,29.4012,-89.0355,1.0,26.412,11111222 
WAVCIS,ioos:station:WAVCIS:CSI16:1,2010-02-01T13:15:00Z,29.4012,-89.0355,1.0,26.853,11111222 
WAVCIS,ioos:station:WAVCIS:CSI16:1,2010-02-01T13:30:00Z,29.4012,-89.0355,1.0,27.147,11111222 
WAVCIS,ioos:station:WAVCIS:CSI16:1,2010-02-01T13:45:00Z,29.4012,-89.0355,1.0,27.535,11111222 
WAVCIS,ioos:station:WAVCIS:CSI16:1,2010-02-01T14:00:00Z,29.4012,-89.0355,1.0,27.766,11111222 
WAVCIS,ioos:station:WAVCIS:CSI16:1,2010-02-01T14:15:00Z,29.4012,-89.0355,1.0,28.027,11111222 
WAVCIS,ioos:station:WAVCIS:CSI16:1,2010-02-01T14:30:00Z,29.4012,-89.0355,1.0,28.137,11111222 
WAVCIS,ioos:station:WAVCIS:CSI16:1,2010-02-01T14:45:00Z,29.4012,-89.0355,1.0,28.323,11111222 
WAVCIS,ioos:station:WAVCIS:CSI16:1,2010-02-01T15:00:00Z,29.4012,-89.0355,1.0,28.439,11111222 
WAVCIS,ioos:station:WAVCIS:CSI16:1,2010-02-01T15:15:00Z,29.4012,-89.0355,1.0,28.729,11111222 
WAVCIS,ioos:station:WAVCIS:CSI16:1,2010-02-01T15:30:00Z,29.4012,-89.0355,1.0,29.037,11111222 
WAVCIS,ioos:station:WAVCIS:CSI16:1,2010-02-01T15:45:00Z,29.4012,-89.0355,1.0,29.183,11111222 
WAVCIS,ioos:station:WAVCIS:CSI16:1,2010-02-01T16:00:00Z,29.4012,-89.0355,1.0,29.256,11111222 
WAVCIS,ioos:station:WAVCIS:CSI16:1,2010-02-01T16:15:00Z,29.4012,-89.0355,1.0,29.326,11111222 
WAVCIS,ioos:station:WAVCIS:CSI16:1,2010-02-01T16:30:00Z,29.4012,-89.0355,1.0,29.367,11111222 
WAVCIS,ioos:station:WAVCIS:CSI16:1,2010-02-01T16:45:00Z,29.4012,-89.0355,1.0,29.363,11111222 
WAVCIS,ioos:station:WAVCIS:CSI16:1,2010-02-01T17:00:00Z,29.4012,-89.0355,1.0,29.395,11111222 
WAVCIS,ioos:station:WAVCIS:CSI16:1,2010-02-01T17:15:00Z,29.4012,-89.0355,1.0,29.435,11111222 
WAVCIS,ioos:station:WAVCIS:CSI16:1,2010-02-01T17:30:00Z,29.4012,-89.0355,1.0,29.507,11111222 
WAVCIS,ioos:station:WAVCIS:CSI16:1,2010-02-01T17:45:00Z,29.4012,-89.0355,1.0,29.57,11111222 
WAVCIS,ioos:station:WAVCIS:CSI16:1,2010-02-01T18:00:00Z,29.4012,-89.0355,1.0,29.615,11111222 
WAVCIS,ioos:station:WAVCIS:CSI16:1,2010-02-01T18:15:00Z,29.4012,-89.0355,1.0,29.698,11111222 
WAVCIS,ioos:station:WAVCIS:CSI16:1,2010-02-01T18:30:00Z,29.4012,-89.0355,1.0,29.619,11111222 
WAVCIS,ioos:station:WAVCIS:CSI16:1,2010-02-01T18:45:00Z,29.4012,-89.0355,1.0,29.57,11111222 
WAVCIS,ioos:station:WAVCIS:CSI16:1,2010-02-01T19:00:00Z,29.4012,-89.0355,1.0,29.708,11111222 
WAVCIS,ioos:station:WAVCIS:CSI16:1,2010-02-01T19:15:00Z,29.4012,-89.0355,1.0,29.787,11111222 
WAVCIS,ioos:station:WAVCIS:CSI16:1,2010-02-01T19:30:00Z,29.4012,-89.0355,1.0,29.849,11111222 
WAVCIS,ioos:station:WAVCIS:CSI16:1,2010-02-01T19:45:00Z,29.4012,-89.0355,1.0,29.883,11111222 
WAVCIS,ioos:station:WAVCIS:CSI16:1,2010-02-01T20:00:00Z,29.4012,-89.0355,1.0,29.896,11111222 
WAVCIS,ioos:station:WAVCIS:CSI16:1,2010-02-01T20:15:00Z,29.4012,-89.0355,1.0,29.844,11111222 
WAVCIS,ioos:station:WAVCIS:CSI16:1,2010-02-01T20:30:00Z,29.4012,-89.0355,1.0,29.862,11111222 
WAVCIS,ioos:station:WAVCIS:CSI16:1,2010-02-01T20:45:00Z,29.4012,-89.0355,1.0,29.942,11111222 
WAVCIS,ioos:station:WAVCIS:CSI16:1,2010-02-01T21:00:00Z,29.4012,-89.0355,1.0,29.934,11111222 
WAVCIS,ioos:station:WAVCIS:CSI16:1,2010-02-01T21:15:00Z,29.4012,-89.0355,1.0,29.847,11111222 
WAVCIS,ioos:station:WAVCIS:CSI16:1,2010-02-01T21:30:00Z,29.4012,-89.0355,1.0,29.91,11111222 
WAVCIS,ioos:station:WAVCIS:CSI16:1,2010-02-01T21:45:00Z,29.4012,-89.0355,1.0,29.978,11111222 
WAVCIS,ioos:station:WAVCIS:CSI16:1,2010-02-01T22:00:00Z,29.4012,-89.0355,1.0,29.984,11111222 
WAVCIS,ioos:station:WAVCIS:CSI16:1,2010-02-01T22:15:00Z,29.4012,-89.0355,1.0,30.064,11111222 
WAVCIS,ioos:station:WAVCIS:CSI16:1,2010-02-01T22:30:00Z,29.4012,-89.0355,1.0,30.024,11111222 
WAVCIS,ioos:station:WAVCIS:CSI16:1,2010-02-01T22:45:00Z,29.4012,-89.0355,1.0,30.14,11111222 
WAVCIS,ioos:station:WAVCIS:CSI16:1,2010-02-01T23:00:00Z,29.4012,-89.0355,1.0,30.309,11111222 
WAVCIS,ioos:station:WAVCIS:CSI16:1,2010-02-01T23:15:00Z,29.4012,-89.0355,1.0,30.337,11111222 
WAVCIS,ioos:station:WAVCIS:CSI16:1,2010-02-01T23:30:00Z,29.4012,-89.0355,1.0,30.423,11111222 
WAVCIS,ioos:station:WAVCIS:CSI16:1,2010-02-01T23:45:00Z,29.4012,-89.0355,1.0,30.274,11111222 
WAVCIS,ioos:station:WAVCIS:CSI16:1,2010-02-02T00:00:00Z,29.4012,-89.0355,1.0,30.166,11111222 
WAVCIS,ioos:station:WAVCIS:CSI16:1,2010-02-02T00:15:00Z,29.4012,-89.0355,1.0,30.111,11111222 
WAVCIS,ioos:station:WAVCIS:CSI16:1,2010-02-02T00:30:00Z,29.4012,-89.0355,1.0,30.086,11111222 
WAVCIS,ioos:station:WAVCIS:CSI16:1,2010-02-02T00:45:00Z,29.4012,-89.0355,1.0,30.041,11111222 
WAVCIS,ioos:station:WAVCIS:CSI16:1,2010-02-02T01:00:00Z,29.4012,-89.0355,1.0,29.996,11111222 
WAVCIS,ioos:station:WAVCIS:CSI16:1,2010-02-02T01:15:00Z,29.4012,-89.0355,1.0,29.963,11111222 
WAVCIS,ioos:station:WAVCIS:CSI16:1,2010-02-02T01:30:00Z,29.4012,-89.0355,1.0,29.872,11111222 
WAVCIS,ioos:station:WAVCIS:CSI16:1,2010-02-02T01:45:00Z,29.4012,-89.0355,1.0,24.556,11111222 
WAVCIS,ioos:station:WAVCIS:CSI16:1,2010-02-02T02:00:00Z,29.4012,-89.0355,1.0,26.76,11111222 
WAVCIS,ioos:station:WAVCIS:CSI16:1,2010-02-02T02:15:00Z,29.4012,-89.0355,1.0,26.007,11111222 
WAVCIS,ioos:station:WAVCIS:CSI16:1,2010-02-02T02:30:00Z,29.4012,-89.0355,1.0,25.799,11111222 
WAVCIS,ioos:station:WAVCIS:CSI16:1,2010-02-02T02:45:00Z,29.4012,-89.0355,1.0,26.099,11111222 
WAVCIS,ioos:station:WAVCIS:CSI16:1,2010-02-02T03:00:00Z,29.4012,-89.0355,1.0,26.789,11111222 
WAVCIS,ioos:station:WAVCIS:CSI16:1,2010-02-02T03:15:00Z,29.4012,-89.0355,1.0,26.935,11111222 
WAVCIS,ioos:station:WAVCIS:CSI16:1,2010-02-02T03:30:00Z,29.4012,-89.0355,1.0,26.869,11111222 
WAVCIS,ioos:station:WAVCIS:CSI16:1,2010-02-02T03:45:00Z,29.4012,-89.0355,1.0,27.1,11111222 
WAVCIS,ioos:station:WAVCIS:CSI16:1,2010-02-02T04:00:00Z,29.4012,-89.0355,1.0,27.881,11111222 
WAVCIS,ioos:station:WAVCIS:CSI16:1,2010-02-02T04:15:00Z,29.4012,-89.0355,1.0,27.908,11111222 
WAVCIS,ioos:station:WAVCIS:CSI16:1,2010-02-02T04:30:00Z,29.4012,-89.0355,1.0,28.518,11111222 
WAVCIS,ioos:station:WAVCIS:CSI16:1,2010-02-02T04:45:00Z,29.4012,-89.0355,1.0,28.833,11111222 
WAVCIS,ioos:station:WAVCIS:CSI16:1,2010-02-02T05:00:00Z,29.4012,-89.0355,1.0,28.786,11111222 
WAVCIS,ioos:station:WAVCIS:CSI16:1,2010-02-02T05:15:00Z,29.4012,-89.0355,1.0,29.055,11111222 
WAVCIS,ioos:station:WAVCIS:CSI16:1,2010-02-02T05:30:00Z,29.4012,-89.0355,1.0,29.095,11111222 
WAVCIS,ioos:station:WAVCIS:CSI16:1,2010-02-02T05:45:00Z,29.4012,-89.0355,1.0,29.153,11111222 
WAVCIS,ioos:station:WAVCIS:CSI16:1,2010-02-02T06:00:00Z,29.4012,-89.0355,1.0,29.312,11111222 
WAVCIS,ioos:station:WAVCIS:CSI16:1,2010-02-02T06:15:00Z,29.4012,-89.0355,1.0,29.341,11111222 
WAVCIS,ioos:station:WAVCIS:CSI16:1,2010-02-02T06:30:00Z,29.4012,-89.0355,1.0,29.312,11111222 
WAVCIS,ioos:station:WAVCIS:CSI16:1,2010-02-02T06:45:00Z,29.4012,-89.0355,1.0,29.292,11111222 
WAVCIS,ioos:station:WAVCIS:CSI16:1,2010-02-02T07:00:00Z,29.4012,-89.0355,1.0,29.341,11111222 
WAVCIS,ioos:station:WAVCIS:CSI16:1,2010-02-02T07:15:00Z,29.4012,-89.0355,1.0,29.385,11111222 
WAVCIS,ioos:station:WAVCIS:CSI16:1,2010-02-02T07:30:00Z,29.4012,-89.0355,1.0,29.412,11111222 
WAVCIS,ioos:station:WAVCIS:CSI16:1,2010-02-02T07:45:00Z,29.4012,-89.0355,1.0,29.464,11111222 
WAVCIS,ioos:station:WAVCIS:CSI16:1,2010-02-02T08:00:00Z,29.4012,-89.0355,1.0,29.397,11111222 
WAVCIS,ioos:station:WAVCIS:CSI16:1,2010-02-02T08:15:00Z,29.4012,-89.0355,1.0,29.267,11111222 
WAVCIS,ioos:station:WAVCIS:CSI16:1,2010-02-02T08:30:00Z,29.4012,-89.0355,1.0,29.147,11111222 
WAVCIS,ioos:station:WAVCIS:CSI16:1,2010-02-02T08:45:00Z,29.4012,-89.0355,1.0,29.102,11111222 
WAVCIS,ioos:station:WAVCIS:CSI16:1,2010-02-02T09:00:00Z,29.4012,-89.0355,1.0,29.112,11111222 
WAVCIS,ioos:station:WAVCIS:CSI16:1,2010-02-02T09:15:00Z,29.4012,-89.0355,1.0,28.987,11111222 
WAVCIS,ioos:station:WAVCIS:CSI16:1,2010-02-02T09:30:00Z,29.4012,-89.0355,1.0,29.003,11111222 
WAVCIS,ioos:station:WAVCIS:CSI16:1,2010-02-02T09:45:00Z,29.4012,-89.0355,1.0,28.972,11111222 
WAVCIS,ioos:station:WAVCIS:CSI16:1,2010-02-02T10:00:00Z,29.4012,-89.0355,1.0,29.146,11111222 
WAVCIS,ioos:station:WAVCIS:CSI16:1,2010-02-02T10:15:00Z,29.4012,-89.0355,1.0,29.071,11111222 
WAVCIS,ioos:station:WAVCIS:CSI16:1,2010-02-02T10:30:00Z,29.4012,-89.0355,1.0,28.848,11111222 
WAVCIS,ioos:station:WAVCIS:CSI16:1,2010-02-02T10:45:00Z,29.4012,-89.0355,1.0,28.774,11111222 
WAVCIS,ioos:station:WAVCIS:CSI16:1,2010-02-02T11:00:00Z,29.4012,-89.0355,1.0,28.741,11111222 
WAVCIS,ioos:station:WAVCIS:CSI16:1,2010-02-02T11:15:00Z,29.4012,-89.0355,1.0,28.661,11111222 
WAVCIS,ioos:station:WAVCIS:CSI16:1,2010-02-02T11:30:00Z,29.4012,-89.0355,1.0,28.774,11111222 
WAVCIS,ioos:station:WAVCIS:CSI16:1,2010-02-02T11:45:00Z,29.4012,-89.0355,1.0,28.705,11111222 
WAVCIS,ioos:station:WAVCIS:CSI16:1,2010-02-02T12:00:00Z,29.4012,-89.0355,1.0,28.734,11111222 
WAVCIS,ioos:station:WAVCIS:CSI16:1,2010-02-02T12:15:00Z,29.4012,-89.0355,1.0,28.598,11111222 
WAVCIS,ioos:station:WAVCIS:CSI16:1,2010-02-02T12:30:00Z,29.4012,-89.0355,1.0,28.586,11111222 
WAVCIS,ioos:station:WAVCIS:CSI16:1,2010-02-02T12:45:00Z,29.4012,-89.0355,1.0,28.531,11111222 
WAVCIS,ioos:station:WAVCIS:CSI16:1,2010-02-02T13:00:00Z,29.4012,-89.0355,1.0,28.36,11111222 
WAVCIS,ioos:station:WAVCIS:CSI16:1,2010-02-02T13:15:00Z,29.4012,-89.0355,1.0,28.435,11111222 
WAVCIS,ioos:station:WAVCIS:CSI16:1,2010-02-02T13:30:00Z,29.4012,-89.0355,1.0,28.299,11111222 
WAVCIS,ioos:station:WAVCIS:CSI16:1,2010-02-02T13:45:00Z,29.4012,-89.0355,1.0,28.222,11111222 
WAVCIS,ioos:station:WAVCIS:CSI16:1,2010-02-02T14:00:00Z,29.4012,-89.0355,1.0,27.699,11111222 
WAVCIS,ioos:station:WAVCIS:CSI16:1,2010-02-02T14:15:00Z,29.4012,-89.0355,1.0,27.154,11111222 
WAVCIS,ioos:station:WAVCIS:CSI16:1,2010-02-02T14:30:00Z,29.4012,-89.0355,1.0,27.13,11111222 
WAVCIS,ioos:station:WAVCIS:CSI16:1,2010-02-02T14:45:00Z,29.4012,-89.0355,1.0,26.982,11111222 
WAVCIS,ioos:station:WAVCIS:CSI16:1,2010-02-02T15:00:00Z,29.4012,-89.0355,1.0,26.926,11111222 
WAVCIS,ioos:station:WAVCIS:CSI16:1,2010-02-02T15:15:00Z,29.4012,-89.0355,1.0,26.83,11111222 
WAVCIS,ioos:station:WAVCIS:CSI16:1,2010-02-02T15:30:00Z,29.4012,-89.0355,1.0,26.818,11111222 
WAVCIS,ioos:station:WAVCIS:CSI16:1,2010-02-02T15:45:00Z,29.4012,-89.0355,1.0,26.917,11111222 
WAVCIS,ioos:station:WAVCIS:CSI16:1,2010-02-02T16:00:00Z,29.4012,-89.0355,1.0,27.187,11111222 
WAVCIS,ioos:station:WAVCIS:CSI16:1,2010-02-02T16:15:00Z,29.4012,-89.0355,1.0,27.449,11111222 
WAVCIS,ioos:station:WAVCIS:CSI16:1,2010-02-02T16:30:00Z,29.4012,-89.0355,1.0,27.518,11111222 
WAVCIS,ioos:station:WAVCIS:CSI16:1,2010-02-02T16:45:00Z,29.4012,-89.0355,1.0,27.83,11111222 
WAVCIS,ioos:station:WAVCIS:CSI16:1,2010-02-02T17:00:00Z,29.4012,-89.0355,1.0,27.755,11111222 
WAVCIS,ioos:station:WAVCIS:CSI16:1,2010-02-02T17:15:00Z,29.4012,-89.0355,1.0,28.163,11111222 
WAVCIS,ioos:station:WAVCIS:CSI16:1,2010-02-02T17:30:00Z,29.4012,-89.0355,1.0,28.626,11111222 
WAVCIS,ioos:station:WAVCIS:CSI16:1,2010-02-02T17:45:00Z,29.4012,-89.0355,1.0,28.62,11111222 
WAVCIS,ioos:station:WAVCIS:CSI16:1,2010-02-02T18:00:00Z,29.4012,-89.0355,1.0,28.73,11111222 
WAVCIS,ioos:station:WAVCIS:CSI16:1,2010-02-02T18:15:00Z,29.4012,-89.0355,1.0,29.133,11111222 
WAVCIS,ioos:station:WAVCIS:CSI16:1,2010-02-02T18:30:00Z,29.4012,-89.0355,1.0,29.348,11111222 
WAVCIS,ioos:station:WAVCIS:CSI16:1,2010-02-02T18:45:00Z,29.4012,-89.0355,1.0,29.631,11111222 
WAVCIS,ioos:station:WAVCIS:CSI16:1,2010-02-02T19:00:00Z,29.4012,-89.0355,1.0,29.687,11111222 
WAVCIS,ioos:station:WAVCIS:CSI16:1,2010-02-02T19:15:00Z,29.4012,-89.0355,1.0,29.751,11111222 
WAVCIS,ioos:station:WAVCIS:CSI16:1,2010-02-02T19:30:00Z,29.4012,-89.0355,1.0,29.787,11111222 
WAVCIS,ioos:station:WAVCIS:CSI16:1,2010-02-02T19:45:00Z,29.4012,-89.0355,1.0,29.856,11111222 
WAVCIS,ioos:station:WAVCIS:CSI16:1,2010-02-02T20:00:00Z,29.4012,-89.0355,1.0,29.727,11111222 
WAVCIS,ioos:station:WAVCIS:CSI16:1,2010-02-02T20:15:00Z,29.4012,-89.0355,1.0,29.671,11111222 
WAVCIS,ioos:station:WAVCIS:CSI16:1,2010-02-02T20:30:00Z,29.4012,-89.0355,1.0,29.655,11111222 
WAVCIS,ioos:station:WAVCIS:CSI16:1,2010-02-02T20:45:00Z,29.4012,-89.0355,1.0,29.513,11111222 
WAVCIS,ioos:station:WAVCIS:CSI16:1,2010-02-02T21:00:00Z,29.4012,-89.0355,1.0,29.396,11111222 
WAVCIS,ioos:station:WAVCIS:CSI16:1,2010-02-02T21:15:00Z,29.4012,-89.0355,1.0,29.377,11111222 
WAVCIS,ioos:station:WAVCIS:CSI16:1,2010-02-02T21:30:00Z,29.4012,-89.0355,1.0,29.203,11111222 
WAVCIS,ioos:station:WAVCIS:CSI16:1,2010-02-02T21:45:00Z,29.4012,-89.0355,1.0,29.034,11111222 
WAVCIS,ioos:station:WAVCIS:CSI16:1,2010-02-02T22:00:00Z,29.4012,-89.0355,1.0,28.975,11111222 
WAVCIS,ioos:station:WAVCIS:CSI16:1,2010-02-02T22:15:00Z,29.4012,-89.0355,1.0,28.552,11111222 
WAVCIS,ioos:station:WAVCIS:CSI16:1,2010-02-02T22:30:00Z,29.4012,-89.0355,1.0,28.131,11111222 
WAVCIS,ioos:station:WAVCIS:CSI16:1,2010-02-02T22:45:00Z,29.4012,-89.0355,1.0,28.006,11111222 
WAVCIS,ioos:station:WAVCIS:CSI16:1,2010-02-02T23:00:00Z,29.4012,-89.0355,1.0,28.077,11111222 
WAVCIS,ioos:station:WAVCIS:CSI16:1,2010-02-02T23:15:00Z,29.4012,-89.0355,1.0,27.879,11111222 
WAVCIS,ioos:station:WAVCIS:CSI16:1,2010-02-02T23:30:00Z,29.4012,-89.0355,1.0,27.828,11111222 
WAVCIS,ioos:station:WAVCIS:CSI16:1,2010-02-02T23:45:00Z,29.4012,-89.0355,1.0,27.44,11111222 
WAVCIS,ioos:station:WAVCIS:CSI16:1,2010-02-03T00:00:00Z,29.4012,-89.0355,1.0,27.8,11111222 
WAVCIS,ioos:station:WAVCIS:CSI16:1,2010-02-03T00:15:00Z,29.4012,-89.0355,1.0,27.741,11111222 
WAVCIS,ioos:station:WAVCIS:CSI16:1,2010-02-03T00:30:00Z,29.4012,-89.0355,1.0,27.989,11111222 
WAVCIS,ioos:station:WAVCIS:CSI16:1,2010-02-03T00:45:00Z,29.4012,-89.0355,1.0,27.549,11111222 
WAVCIS,ioos:station:WAVCIS:CSI16:1,2010-02-03T01:00:00Z,29.4012,-89.0355,1.0,26.98,11111222 
WAVCIS,ioos:station:WAVCIS:CSI16:1,2010-02-03T01:15:00Z,29.4012,-89.0355,1.0,22.058,11111222 
WAVCIS,ioos:station:WAVCIS:CSI16:1,2010-02-03T01:30:00Z,29.4012,-89.0355,1.0,21.794,11111222 
WAVCIS,ioos:station:WAVCIS:CSI16:1,2010-02-03T01:45:00Z,29.4012,-89.0355,1.0,23.872,11111222 
WAVCIS,ioos:station:WAVCIS:CSI16:1,2010-02-03T02:00:00Z,29.4012,-89.0355,1.0,24.644,11111222 
WAVCIS,ioos:station:WAVCIS:CSI16:1,2010-02-03T02:15:00Z,29.4012,-89.0355,1.0,19.673,11111222 
WAVCIS,ioos:station:WAVCIS:CSI16:1,2010-02-03T02:30:00Z,29.4012,-89.0355,1.0,18.906,11111222 
WAVCIS,ioos:station:WAVCIS:CSI16:1,2010-02-03T02:45:00Z,29.4012,-89.0355,1.0,19.502,11111222 
WAVCIS,ioos:station:WAVCIS:CSI16:1,2010-02-03T03:00:00Z,29.4012,-89.0355,1.0,22.712,11111222 
WAVCIS,ioos:station:WAVCIS:CSI16:1,2010-02-03T03:15:00Z,29.4012,-89.0355,1.0,22.69,11111222 
WAVCIS,ioos:station:WAVCIS:CSI16:1,2010-02-03T03:30:00Z,29.4012,-89.0355,1.0,23.128,11111222 
WAVCIS,ioos:station:WAVCIS:CSI16:1,2010-02-03T03:45:00Z,29.4012,-89.0355,1.0,22.256,11111222 
WAVCIS,ioos:station:WAVCIS:CSI16:1,2010-02-03T04:00:00Z,29.4012,-89.0355,1.0,22.359,11111222 
WAVCIS,ioos:station:WAVCIS:CSI16:1,2010-02-03T04:15:00Z,29.4012,-89.0355,1.0,23.191,11111222 
WAVCIS,ioos:station:WAVCIS:CSI16:1,2010-02-03T04:30:00Z,29.4012,-89.0355,1.0,20.959,11111222 
WAVCIS,ioos:station:WAVCIS:CSI16:1,2010-02-03T04:45:00Z,29.4012,-89.0355,1.0,21.906,11111222 
WAVCIS,ioos:station:WAVCIS:CSI16:1,2010-02-03T05:00:00Z,29.4012,-89.0355,1.0,21.636,11111222 
WAVCIS,ioos:station:WAVCIS:CSI16:1,2010-02-03T05:15:00Z,29.4012,-89.0355,1.0,21.476,11111222 
WAVCIS,ioos:station:WAVCIS:CSI16:1,2010-02-03T05:30:00Z,29.4012,-89.0355,1.0,22.165,11111222 
WAVCIS,ioos:station:WAVCIS:CSI16:1,2010-02-03T05:45:00Z,29.4012,-89.0355,1.0,21.663,11111222 
WAVCIS,ioos:station:WAVCIS:CSI16:1,2010-02-03T06:00:00Z,29.4012,-89.0355,1.0,21.164,11111222 
WAVCIS,ioos:station:WAVCIS:CSI16:1,2010-02-03T06:15:00Z,29.4012,-89.0355,1.0,21.355,11111222 
WAVCIS,ioos:station:WAVCIS:CSI16:1,2010-02-03T06:30:00Z,29.4012,-89.0355,1.0,21.072,11111222 
WAVCIS,ioos:station:WAVCIS:CSI16:1,2010-02-03T06:45:00Z,29.4012,-89.0355,1.0,20.331,11111222 
WAVCIS,ioos:station:WAVCIS:CSI16:1,2010-02-03T07:00:00Z,29.4012,-89.0355,1.0,17.989,11111222 
WAVCIS,ioos:station:WAVCIS:CSI16:1,2010-02-03T07:15:00Z,29.4012,-89.0355,1.0,12.602,11111222 
WAVCIS,ioos:station:WAVCIS:CSI16:1,2010-02-03T07:30:00Z,29.4012,-89.0355,1.0,14.769,11111222 
WAVCIS,ioos:station:WAVCIS:CSI16:1,2010-02-03T07:45:00Z,29.4012,-89.0355,1.0,16.026,11111222 
WAVCIS,ioos:station:WAVCIS:CSI16:1,2010-02-03T08:00:00Z,29.4012,-89.0355,1.0,17.879,11111222 
WAVCIS,ioos:station:WAVCIS:CSI16:1,2010-02-03T08:15:00Z,29.4012,-89.0355,1.0,21.548,11111222 
WAVCIS,ioos:station:WAVCIS:CSI16:1,2010-02-03T08:30:00Z,29.4012,-89.0355,1.0,22.028,11111222 
WAVCIS,ioos:station:WAVCIS:CSI16:1,2010-02-03T08:45:00Z,29.4012,-89.0355,1.0,23.721,11111222 
WAVCIS,ioos:station:WAVCIS:CSI16:1,2010-02-03T09:00:00Z,29.4012,-89.0355,1.0,24.974,11111222 
WAVCIS,ioos:station:WAVCIS:CSI16:1,2010-02-03T09:15:00Z,29.4012,-89.0355,1.0,26.166,11111222 
WAVCIS,ioos:station:WAVCIS:CSI16:1,2010-02-03T09:30:00Z,29.4012,-89.0355,1.0,26.787,11111222 
WAVCIS,ioos:station:WAVCIS:CSI16:1,2010-02-03T09:45:00Z,29.4012,-89.0355,1.0,27.483,11111222 
WAVCIS,ioos:station:WAVCIS:CSI16:1,2010-02-03T10:00:00Z,29.4012,-89.0355,1.0,27.902,11111222 
WAVCIS,ioos:station:WAVCIS:CSI16:1,2010-02-03T10:15:00Z,29.4012,-89.0355,1.0,28.155,11111222 
WAVCIS,ioos:station:WAVCIS:CSI16:1,2010-02-03T10:30:00Z,29.4012,-89.0355,1.0,28.45,11111222 
WAVCIS,ioos:station:WAVCIS:CSI16:1,2010-02-03T10:45:00Z,29.4012,-89.0355,1.0,28.562,11111222 
WAVCIS,ioos:station:WAVCIS:CSI16:1,2010-02-03T11:00:00Z,29.4012,-89.0355,1.0,28.783,11111222 
WAVCIS,ioos:station:WAVCIS:CSI16:1,2010-02-03T11:15:00Z,29.4012,-89.0355,1.0,28.845,11111222 
WAVCIS,ioos:station:WAVCIS:CSI16:1,2010-02-03T11:30:00Z,29.4012,-89.0355,1.0,28.92,11111222 
WAVCIS,ioos:station:WAVCIS:CSI16:1,2010-02-03T11:45:00Z,29.4012,-89.0355,1.0,29.016,11111222 
WAVCIS,ioos:station:WAVCIS:CSI16:1,2010-02-03T12:00:00Z,29.4012,-89.0355,1.0,29.106,11111222 
WAVCIS,ioos:station:WAVCIS:CSI16:1,2010-02-03T12:15:00Z,29.4012,-89.0355,1.0,29.082,11111222 
WAVCIS,ioos:station:WAVCIS:CSI16:1,2010-02-03T12:30:00Z,29.4012,-89.0355,1.0,29.148,11111222 
WAVCIS,ioos:station:WAVCIS:CSI16:1,2010-02-03T12:45:00Z,29.4012,-89.0355,1.0,29.109,11111222 
WAVCIS,ioos:station:WAVCIS:CSI16:1,2010-02-03T13:00:00Z,29.4012,-89.0355,1.0,29.087,11111222 
WAVCIS,ioos:station:WAVCIS:CSI16:1,2010-02-03T13:15:00Z,29.4012,-89.0355,1.0,29.086,11111222 
WAVCIS,ioos:station:WAVCIS:CSI16:1,2010-02-03T13:30:00Z,29.4012,-89.0355,1.0,29.097,11111222 
WAVCIS,ioos:station:WAVCIS:CSI16:1,2010-02-03T13:45:00Z,29.4012,-89.0355,1.0,29.163,11111222 
WAVCIS,ioos:station:WAVCIS:CSI16:1,2010-02-03T14:00:00Z,29.4012,-89.0355,1.0,29.128,11111222 
WAVCIS,ioos:station:WAVCIS:CSI16:1,2010-02-03T14:15:00Z,29.4012,-89.0355,1.0,29.119,11111222 
WAVCIS,ioos:station:WAVCIS:CSI16:1,2010-02-03T14:30:00Z,29.4012,-89.0355,1.0,29.146,11111222 
WAVCIS,ioos:station:WAVCIS:CSI16:1,2010-02-03T14:45:00Z,29.4012,-89.0355,1.0,29.147,11111222 
WAVCIS,ioos:station:WAVCIS:CSI16:1,2010-02-03T15:00:00Z,29.4012,-89.0355,1.0,29.147,11111222 
WAVCIS,ioos:station:WAVCIS:CSI16:1,2010-02-03T15:15:00Z,29.4012,-89.0355,1.0,29.205,11111222 